Regional Weather Roundup
Issued by NWS New Orleans/Baton Rouge, LA

Home | Current Version | Previous Version | Text Only | Print | Product List | Glossary On
Versions: 1 2 3 4 5 6 7 8 9 10 11 12 13 14 15 16 17 18 19 20 21 22 23 24 25 26 27 28 29 30 31 32 33 34 35 36 37 38 39 40 41 42 43 44 45 46 47 48 49 50
000
ASUS44 KLIX 300210
RWRLIX
NEW ORLEANS REGIONAL WEATHER ROUNDUP
NATIONAL WEATHER SERVICE NEW ORLEANS LA
900 PM CDT FRI AUG 29 2014

NOTE: "FAIR" INDICATES FEW OR NO CLOUDS BELOW 12,000 FEET WITH NO
      SIGNIFICANT WEATHER AND/OR OBSTRUCTIONS TO VISIBILITY.
      SKY/WX - SKY CONDITION AND SIGNIFICANT WEATHER.
      TMP - AIR TEMPERATURE.     DP    - DEWPOINT TEMPERATURE.
      RH  - RELATIVE HUMIDITY.   PRES  - PRESSURE.
      HI  - HEAT INDEX.          WCI   - WIND CHILL INDEX.

*  THESE STATIONS ARE NOT NWS OR FAA STATIONS AND ARE NOT UNDER
   NWS QUALITY CONTROL.

LAZ038-040-048-061>063-065>067-069-300300-
SOUTHEAST LOUISIANA

CITY           SKY/WX    TMP DP  RH WIND       PRES   REMARKS
N.O. AUDUBON     N/A     78  77  94 MISG        N/A
N.O. INTL ARPT CLOUDY    79  75  87 S10       29.97R
N.O. LAKEFRONT CLOUDY    78  70  76 SE14      29.97R
N.O. DOWNTOWN* MOCLDY    79  70  73 S10G16    29.98R
SLIDELL        CLOUDY    77  75  93 SE7       29.96R
BATON ROUGE    CLOUDY    78  74  87 SE6       29.96R
BOOTHVILLE     CLOUDY    79  77  94 SE5       30.00R
BELLE CHASSE   LGT RAIN  77  71  82 SE14      29.96R
BOGALUSA*        N/A     77  73  86 CALM      29.97F
GALLIANO*      NOT AVBL
NEW ROADS*       N/A     77  73  86 SE5       29.96R
GONZALES*        N/A     77  77  99 CALM      29.95R
HAMMOND*       CLOUDY    77  73  88 CALM      29.98R
HOUMA*         CLOUDY    75  73  92 CALM      29.96R
PORT FOURCHON* CLEAR     81  73  78 SE9       30.00R

$$

MSZ070-080>082-300300-
SOUTHERN MISSISSIPPI

CITY           SKY/WX    TMP DP  RH WIND       PRES   REMARKS
MCCOMB         CLOUDY    76  71  85 SE8       29.97S
GULFPORT       CLOUDY    78  75  90 SE7       29.98R
BILOXI         MOCLDY    79  75  86 SE6       29.98S
PASCAGOULA     MOCLDY    78  76  93 SE6       30.00R

$$

COASTAL OBSERVATIONS
LAKE AND NEARSHORE STATIONS

STATION/POSITION TIME  TEMP    WIND        PRES    WAVE
                       AIR SEA DIR/SP/G            HT/PER
                 (UTC) (F)     (DEG/KT/KT) (MB)    (FT/S)
PASCAGOULA       0200   80     130/ 10/ 13 1015.4
WAVELAND YACHT   0200   80     130/  9/ 10 1014.3
GRAND ISLE       0200   79 84  120/  4/  6 1015.9
SOUTHWEST PASS   0200   78 88  100/  9/ 11 1016.1
NEW CANAL        0200   79 83  130/  2/  6 1014.8
SHELL BEACH      0200   77 81  150/  9/ 11 1015.0

OFFSHORE STATIONS

STATION/POSITION TIME  TEMP    WIND        PRES    WAVE
                       AIR SEA DIR/SP/G            HT/PER
                 (UTC) (F)     (DEG/KT/KT) (MB)    (FT/S)
64 S DAUPHIN ISL 0144   80 85   70/  8/ 10 1016.5

$$



USA.gov is the U.S. government's official web portal to all federal, state and local government web resources and services.